Regional Weather Roundup
Issued by NWS Mt. Holly, NJ

Home | Current Version | Previous Version | Text Only | Print | Product List | Glossary On
Versions: 1 2 3 4 5 6 7 8 9 10 11 12 13 14 15 16 17 18 19 20 21 22 23 24 25 26 27
000
ASUS41 KPHI 180212
RWRPHI

REGIONAL WEATHER ROUNDUP
NATIONAL WEATHER SERVICE MOUNT HOLLY NJ
1000 PM EDT TUE OCT 17 2017

NOTE:  "FAIR" INDICATES FEW OR NO CLOUDS BELOW 12,000 FEET WITH NO
SIGNIFICANT WEATHER AND/OR OBSTRUCTIONS TO VISIBILITY.

 * = STATION DOES NOT REPORT PRECIPITATION (E.G. RAIN, SNOW, ETC.)
        OR FOG.

NJZ015>026-180300-
SOUTHERN NEW JERSEY

CITY           SKY/WX    TMP DP  RH WIND       PRES   REMARKS
POMONA         CLEAR     43  40  89 CALM      30.33R
WILDWOOD*      CLEAR     44  41  89 CALM      30.34R
MILLVILLE      CLEAR     42  41  96 CALM      30.33R
WRIGHTSTOWN    CLEAR     45  39  81 SW5       30.30R
MOUNT HOLLY    CLEAR     44  40  85 CALM      30.32R
TRENTON        CLEAR     49  37  63 SW5       30.30R

$$
NJZ001>014-180300-
NORTHERN NEW JERSEY

CITY           SKY/WX    TMP DP  RH WIND       PRES   REMARKS
SUSSEX         CLEAR     41  38  89 SW3       30.28R
ANDOVER*         N/A     41  39  93 CALM      30.28R
MORRISTOWN     CLEAR     39  37  93 CALM      30.29R
NEWARK         CLEAR     52  39  61 S12       30.29R
TETERBORO      CLEAR     52  42  69 SW7       30.28R
CALDWELL       CLEAR     46  38  73 CALM      30.29R
SOMERVILLE     CLEAR     41  38  89 CALM      30.28R
ALLAIRE*       CLEAR     47  40  76 S7        30.32R
TOMS RIVER*      N/A     39  37  92 CALM      30.33R

$$
PAZ043-044-047-054-055-060>062-066>071-180300-
EASTERN PENNSYLVANIA

CITY           SKY/WX    TMP DP  RH WIND       PRES   REMARKS
PHILADELPHIA   CLEAR     53  40  61 SW7       30.32R
NORTH PHILA    CLEAR     49  39  68 CALM      30.32S
BLUE BELL*     CLEAR     41  37  87 CALM      30.32S
DOYLESTOWN     CLEAR     45  36  70 CALM      30.29S
QUAKERTOWN*    CLEAR     41  37  87 CALM      30.30S
PERKASIE*      FAIR      41  39  93 CALM      30.30S
POTTSTOWN      CLEAR     43  38  82 CALM      30.32R
LANCASTER      CLEAR     46  39  76 CALM      30.30R
COATESVILLE    CLEAR     48  39  71 CALM      30.32S
READING        CLEAR     48  41  76 S3        30.29R
ALLENTOWN      CLEAR     48  35  60 W5        30.29R
MOUNT POCONO   CLEAR     41  32  70 W6        30.26R
HAZLETON       CLEAR     39  28  65 CALM      30.30R
LEHIGHTON      FAIR      37  36  93 CALM      30.30R
WILKES BARRE   CLEAR     44  35  70 CALM      30.26R

$$
DEZALL-MDZ008-012-015-019-020-180300-
DELAWARE AND EASTERN MARYLAND

CITY           SKY/WX    TMP DP  RH WIND       PRES   REMARKS
WILMINGTON     CLEAR     49  39  68 SW5       30.33R
DOVER          CLEAR     47  40  76 S5        30.32S
GEORGETOWN     CLEAR     44  41  89 CALM      30.35R
EASTON         CLEAR     46  41  81 CALM      30.37R
ABERDEEN       CLEAR     43  43  99 CALM      30.34R
PATUXENT       PTCLDY    42  41  96 SW5       30.34R
OCEAN CITY     CLEAR     42  41  96 CALM      30.34R
WALLOPS ISLAND CLEAR     45  44  97 CALM      30.34R
CAMBRIDGE      CLEAR     43  41  93 CALM      30.34R
SALISBURY      CLEAR     43  41  93 CALM      30.34R

$$
PAZ001-021-NYZ056-072-MDZ011-DCZ001-180300-
OTHER NEARBY LOCATIONS

CITY           SKY/WX    TMP DP  RH WIND       PRES   REMARKS
HARRISBURG     CLEAR     54  40  59 VRB6      30.29R
WILLIAMSPORT   CLEAR     46  41  82 CALM      30.26R
BINGHAMTON     CLEAR     48  34  58 SW7       30.21R
NEW YORK CITY  CLEAR     55  37  50 MISG      30.31R
BALTIMORE      CLEAR     44  42  93 CALM      30.33R
WASHINGTON DC  CLEAR     53  42  66 SE6       30.34R

$$




USA.gov is the U.S. government's official web portal to all federal, state and local government web resources and services.